This is the latest recevied weather packets stored in our database for station/object WW3TRG. If no packets are shown the sender has not sent any weather packets the latest 10 day(s).
| Time | Temp. | Humidity | Pressure | Rain* | Wind** | Luminosity | Snow |
|---|---|---|---|---|---|---|---|
| 1777493063 | 11.67° C | 99% | 1010.2 hPa | 0.51 mm | - | 45 W/m² | - |
| 1777492760 | 11.67° C | 99% | 1010.5 hPa | 1.27 mm | - | 29 W/m² | - |
| 1777492455 | 11.67° C | 99% | 1010.6 hPa | 2.29 mm | - | 26 W/m² | - |
| 1777492153 | 11.67° C | 99% | 1010.5 hPa | 9.65 mm | - | 24 W/m² | - |
| 1777491849 | 12.22° C | 99% | 1010.5 hPa | 10.16 mm | - | 16 W/m² | - |
| 1777491546 | 12.22° C | 99% | 1010.6 hPa | 2.29 mm | - | 23 W/m² | - |
| 1777491243 | 12.78° C | 99% | 1010.8 hPa | 1.27 mm | - | 15 W/m² | - |
| 1777490939 | 12.78° C | 98% | 1010.7 hPa | 3.05 mm | - | 15 W/m² | - |
| 1777490635 | 12.78° C | 98% | 1010.9 hPa | 4.32 mm | - | 15 W/m² | - |
| 1777490331 | 12.22° C | 97% | 1010.6 hPa | 9.65 mm | - | 21 W/m² | - |
| 1777490029 | 12.78° C | 97% | 1010.8 hPa | 8.38 mm | - | 15 W/m² | - |
| 1777489726 | 13.33° C | 97% | 1011.2 hPa | 1.78 mm | - | 10 W/m² | - |
| 1777489423 | 13.33° C | 96% | 1011.2 hPa | 1.27 mm | - | 18 W/m² | - |
| 1777489115 | 13.33° C | 95% | 1011 hPa | 0 mm | - | 20 W/m² | - |
| 1777488811 | 13.33° C | 94% | 1011.2 hPa | 0 mm | - | 17 W/m² | - |
| 1777488509 | 13.89° C | 92% | 1011.1 hPa | 0 mm | - | 18 W/m² | - |
| 1777488207 | 13.89° C | 91% | 1011.2 hPa | 1.27 mm | - | 22 W/m² | - |
| 1777487905 | 15° C | 86% | 1011.2 hPa | 1.27 mm | - | 29 W/m² | - |
| 1777487602 | 15.56° C | 81% | 1011.2 hPa | 0.51 mm | - | 26 W/m² | - |
| 1777487299 | 16.11° C | 76% | 1011.4 hPa | 0 mm | - | 31 W/m² | - |
| 1777486996 | 16.11° C | 72% | 1011.5 hPa | 0 mm | - | 34 W/m² | - |
| 1777486692 | 16.11° C | 72% | 1011.4 hPa | 0 mm | - | 66 W/m² | - |
| 1777486390 | 16.11° C | 72% | 1011.3 hPa | 0 mm | - | 89 W/m² | - |
| 1777486088 | 16.11° C | 71% | 1011.4 hPa | 0 mm | - | 91 W/m² | - |
| 1777485784 | 16.11° C | 71% | 1011.7 hPa | 0 mm | - | 98 W/m² | - |
* Rain latest hour (hover to see other rain measurements)
** Current wind speed in m/s (hover to see current wind gust speed)